Location: ????????
(55.7667°N, 37.4833°E)
Time: 13:44:43
(UTC+00:00)

ISS - Pass Details

Date: 19 May 2025
Orbit: 415 x 418 km, 51.6° (Epoch: 20 June)

Event Time Altitude Azimuth Distance (km) Brightness Sun altitude
Rises 20:12:19 0° 272° (W) 2,362 0.3 -12.7°
Reaches altitude 10° 20:15:10 10° 246° (WSW) 1,493 -1.0 -12.8°
Maximum altitude 20:16:57 14° 214° (SSW) 1,280 -1.7 -12.8°
Enters shadow 20:17:06 14° 211° (SSW) 1,281 -1.7 -12.9°
